Simultaneous Nadir Overpasses (SNOs) Predictions

Prediction of SNOs between NOAA-20 and NOAA-19 Satellite Orbit:

Table of predicted SNOs for the next 14.0 days since TLE Epoch: 7/27/2024
Index Date (NOAA-20) Time (NOAA-20) Lat,Lon (NOAA-20) SZA (NOAA-20 ) Date (NOAA-19) Time (NOAA-19) Lat,Lon (NOAA-19) SZA (NOAA-19 ) Distance(km) Time Diff (sec)
1 08/09/2024 23:02:12 -72.30, 6.99 123.05 08/09/2024 23:01:03 -72.29, 4.86 122.91 72.12 69
2 08/09/2024 23:53:08 72.82, 173.24 57.54 08/09/2024 23:51:53 72.83, 173.24 57.56 0.56 75
3 08/10/2024 00:43:52 -72.81, -19.42 122.47 08/10/2024 00:42:50 -72.83, -19.49 122.43 2.89 62
4 08/10/2024 01:34:39 72.88, 147.75 57.62 08/10/2024 01:33:50 72.87, 147.84 57.61 3.22 49
5 08/10/2024 02:25:23 -72.87, -44.91 122.38 08/10/2024 02:24:47 -72.87, -44.89 122.38 0.70 36



Historial Predications of SNOs between NOAA-20 and NOAA-19
